HAIYANG-2C (46469 NORAD) Tracking and Keplerian Element Data

This shows tracking and keplerian element data for the satellite.

Feedback or suggestion? Click here.




ElementValue
Catalog46469
NameHAIYANG-2C
Epoch Orbit1020
Epoch Day338.94859239
Epoch Year2020
RAAN207.7232
Inclination65.9954
Eccentricity0.0007967
Argument of Perigee233.4443
Mean Anonmoly126.5879
Mean Motion13.83373037
Decay Rate-5.1E-07
L11 46469U 20066A 20338.94859239 -.00000051 00000-0 27767-4 0 9998
L22 46469 65.9954 207.7232 0007967 233.4443 126.5879 13.83373037 10203

Live tracking and technical data element details for HAIYANG-2C (NORAD 46469). HAIYANG-2C can be tracked NOW for your location showing map with azimuth and elevation plus other details from your city location.

Track the satellite on the map from your city or location and see movement details for azimuth, elevation, latitude, longitude, range, height, and movement on the map or in text.







IsCatalogInMostPopularTable: catalog: 46469, numindb: 24
Update: records affected: 1



GetName: 46469 HAIYANG-2C

Hit Count: updated at: Sat, 05 Dec 2020 04:45:02 GMT